DELTA 1 DEB, 7846

Orbit data source: Space-Track

DELTA 1 DEB, 7846 is space debris in SSO originally from a launch on Sun, 23 Jul 1972 UTC launched from the Air Force Western Test Range (AFWTR). Debris objects in space refer to the collection of defunct objects orbiting the Earth. Examples of debris include non-operational satellites, rocket bodies, and fragments generated from explosions, collisions, or faulty payload assembly.

Loading next visibility...
Identifier
7846, 1972-058S
Orbit
SSO
Country
Flag of USUS
Related business
Manufacturer
Unknown
Mission
Spacecraft
Bus & Motor
Unknown
Mass
Unknown
Launch date (UTC)
1972-07-23 (53 years ago)
Launch vehicle
Unknown
Launch site
Air Force Western Test Range (AFWTR)
Object type
Payload
Rocket body
Debris
Shape & HBR
Unknown shape, 0.5 m
Radar Cross Section
Medium (>0.1 m² and <1 m²)

Expand to show TLE details & history
Last TLE update: 14 hours ago

TLE from 14 hours ago
0 DELTA 1 DEB
1 07846U 72058S   25351.79956206  .00000382  00000-0  94108-4 0  9996
2 07846  98.6070  63.0850 0148616  65.2045 296.4526 14.51713798641772
Epoch: 2025-12-17T19:11Z
TLE epoch observation values (Epoch: 2025-12-17T19:11:22.161Z)
Latitude
-0.00012°
Longitude
48.57845°
Altitude
677.286 km
Speed
7.542 km/s
True Right ascension
04h 12m 20s
True Declination
0° 00' 00"
Sunlit
Object was in full shadow at epoch
Visualization orbit readout
Latitude
Unknown
Longitude
Unknown
Altitude
Unknown
Speed
Unknown
Apparent Right ascension
Unknown
Apparent Declination
Unknown
Sunlit
N/A
Visualization observer readout
Local Sidereal Time
08:04:02
Azimuth
Unknown
Elevation
Unknown
Doppler factor
Unknown
Orbital elements
Apogee altitude
822.615 km
Perigee altitude
611.719 km
Semi-major axis
7,095.304 km
Eccentricity
0.01486
Inclination
98.607°
RAAN
63.085°
Arg. of periapsis
65.2045°
True anomaly
294.91535°
Mean anomaly
296.4526°
Eccentric anomaly
295.68523°
Mean motion
3.63151 °/min
Orbital period
99.13 mins
BSTAR
0.000094108
Loading maneuver chart data...
Computing Atmospheric mass density...
Loading historical data...
Loading historical data...
Loading historical data...
Loading historical data...
Loading historical data...
Loading historical data...
Loading historical data...

Documentation

Showing up to 5 results
|